Location: Sweet Grass
(48.9965°N, 111.9649°W)
Time: 18:18:08
(UTC+00:00)

DIWATA 2B (PO-101) - Pass Details

Date: 07 April 2023
Orbit: 581 x 594 km, 98.0° (Epoch: 04 June)

Event Time Altitude Azimuth Distance (km) Brightness Sun altitude
Exits shadow 08:58:08 27° 51° (NE) 1,136 ? -31.0°
Drops below altitude 10° 09:01:07 10° 7° (N) 1,914 ? -30.8°
Sets 09:03:30 0° 356° (N) 2,821 ? -30.6°
